Snowfall_Accumulation
nan nan nan nan nan nan nan nan nan nan nan nan nan nan nan nan nan 0.0 0.0 0.0 0.1 0.9 0.0 0.0 0.0 0.0 0.0 0.0 0.2 0.0 1.0 0.4 0.4 0.4 0.4 0.4 0.5 0.0 0.0 0.3 0.8 1.0 1.4 2.0 0.8 0.7 2.3 0.0 0.0 0.5 2.8 0.0 0.0 0.0
nan nan nan nan nan nan nan nan nan nan nan nan nan nan nan nan nan nan 0.0 0.0 0.0 0.0 0.1 0.0 0.0 0.0 0.0 0.0 0.0 0.0 0.1 0.1 0.0 0.9 0.9 0.3 0.7 0.8 0.1 1.5 0.1 3.8 0.3 1.4 0.4 2.2 0.2 0.0 0.3 0.1 0.0 0.0 0.1 0.0
nan nan nan nan nan nan nan nan nan nan nan nan nan nan nan nan nan nan 0.0 0.0 0.0 0.6 0.0 0.0 0.0 0.0 0.0 0.0 0.0 0.0 0.0 0.0 0.0 0.0 0.1 0.1 0.3 1.0 1.1 0.3 0.2 0.0 0.0 1.0 0.4 0.2 0.1 0.0 0.0 0.0 0.0 0.0 0.0 0.0
nan nan nan nan nan nan nan nan nan nan nan nan nan nan nan nan nan nan 0.0 0.0 0.0 0.0 1.5 0.0 0.0 0.0 0.0 0.0 0.0 0.0 0.0 0.0 0.0 0.0 0.1 0.4 0.4 0.0 0.2 0.1 0.2 0.1 0.2 1.4 0.6 0.6 0.3 0.2 0.2 0.2 0.1 0.0 0.0 0.0
nan nan nan nan nan nan nan nan nan nan nan nan nan nan nan nan nan nan 0.0 0.0 0.0 0.2 0.7 0.0 0.0 0.0 0.0 0.0 0.0 0.0 0.0 0.0 0.0 0.5 1.4 1.1 0.0 0.4 0.0 0.0 1.1 0.2 1.5 3.1 6.9 2.0 0.8 0.6 0.4 0.2 0.4 0.1 0.0 0.0
nan nan nan nan nan nan nan nan nan nan nan nan nan nan nan nan nan 0.0 1.9 0.0 0.0 0.0 0.6 0.4 0.0 0.0 0.0 0.0 0.0 0.0 0.0 0.0 0.0 0.0 1.0 0.8 0.0 0.1 2.8 1.0 0.1 0.2 0.2 0.3 2.7 1.0 0.5 0.8 0.5 0.3 0.6 0.6 0.0 0.1
nan nan nan nan nan nan nan nan nan nan nan nan nan nan nan nan 0.0 0.2 0.1 0.0 nan 0.0 0.4 0.7 0.2 0.0 0.0 0.0 0.0 0.0 0.0 0.0 0.0 0.0 0.1 0.0 0.0 0.0 0.9 1.3 0.3 0.2 0.3 0.3 0.4 0.5 0.9 0.8 1.9 0.4 0.4 0.5 0.2 0.2
nan nan nan nan nan nan nan nan nan nan nan nan nan nan nan nan nan 0.0 0.0 nan nan 0.0 0.0 2.0 0.7 0.1 0.0 0.2 0.2 0.0 0.0 0.0 0.0 0.0 0.1 0.1 0.0 0.2 2.8 0.1 0.0 0.1 0.1 0.3 0.2 0.2 0.5 0.6 0.5 0.5 0.3 0.3 0.4 0.5
nan nan nan nan nan nan nan nan nan nan nan nan nan nan 0.0 0.0 0.2 0.0 nan nan 0.0 0.3 1.4 2.1 2.0 3.9 0.0 0.1 0.2 0.2 0.0 2.4 0.0 0.4 0.1 0.0 0.9 4.3 2.4 0.3 0.1 0.1 0.1 0.1 0.1 0.0 0.1 0.4 0.5 0.6 0.6 0.5 0.3 0.3
nan nan nan nan nan nan nan nan nan nan nan nan 0.0 0.5 10.4 0.4 nan nan 0.1 2.5 0.9 0.1 0.0 0.9 0.0 1.0 0.1 1.2 0.6 0.5 0.3 1.1 2.3 1.4 0.1 1.1 3.4 0.6 0.3 0.2 0.1 0.1 0.0 0.1 0.2 0.2 0.0 0.1 0.2 0.1 0.0 0.0 0.0 0.0
nan nan nan nan nan nan nan nan nan nan nan 0.2 3.6 3.4 0.0 nan 0.0 1.0 6.2 4.0 1.5 1.4 0.3 0.2 0.1 0.6 0.0 2.4 3.1 0.4 3.3 0.9 2.2 0.8 1.4 2.6 2.0 1.7 0.3 0.2 0.1 0.0 0.0 0.0 0.0 0.0 0.0 0.0 0.1 0.0 0.0 0.0 0.0 0.0
nan nan nan nan nan nan nan nan nan 0.0 0.0 0.0 0.0 0.0 0.1 0.2 3.3 3.9 3.7 1.4 0.4 0.4 0.7 0.7 0.4 0.2 0.4 0.4 1.5 2.5 2.8 1.8 1.6 0.6 4.4 2.8 3.0 0.3 0.1 0.0 0.0 0.1 0.1 0.1 0.1 0.2 0.2 0.1 0.1 0.0 0.0 0.1 0.2 0.3
nan nan nan nan nan nan nan nan nan nan nan 0.0 0.5 4.9 6.7 7.3 34.2 4.1 4.1 2.0 4.4 0.8 1.1 0.7 4.0 0.4 0.3 0.1 2.9 4.1 5.6 6.3 0.6 8.1 3.7 4.1 0.7 0.1 0.1 0.0 0.0 0.0 0.0 0.1 0.2 0.1 0.4 1.1 1.7 1.8 2.7 3.5 4.5 5.9
nan nan nan nan nan nan nan nan nan 0.0 0.2 4.0 3.8 38.1 12.1 6.2 2.7 2.9 1.4 1.5 1.4 1.3 0.8 0.7 1.1 1.0 0.9 1.8 4.0 8.5 2.8 1.6 8.0 8.9 5.2 3.6 1.6 0.7 0.2 0.2 0.1 0.9 1.3 1.6 3.2 3.5 3.9 4.2 7.3 8.3 10.5 11.9 10.2 9.0
nan nan nan nan nan nan nan nan nan 0.1 1.1 4.8 2.2 27.9 7.3 5.5 3.2 3.4 2.5 1.8 1.6 1.1 1.0 1.3 0.7 0.3 2.6 5.5 2.8 2.2 6.3 6.7 3.7 5.7 5.8 4.0 1.6 0.7 1.2 0.9 1.1 1.8 3.7 4.1 4.2 4.7 7.0 6.2 4.5 6.4 7.5 7.5 5.4 8.8
nan nan 0.0 nan nan nan nan nan 0.1 0.3 0.8 1.9 1.1 4.8 3.1 8.1 13.4 9.9 6.7 6.1 1.2 2.1 1.3 1.4 1.8 4.0 5.1 3.7 2.1 3.7 1.5 4.0 8.5 5.1 3.9 1.7 2.4 2.3 2.3 2.4 3.3 3.7 4.1 4.7 4.5 4.1 4.4 5.3 5.0 5.9 4.9 5.1 9.8 8.0
nan 0.0 nan nan nan nan nan 0.5 0.8 0.7 1.6 0.6 11.9 4.8 7.7 7.2 11.3 9.4 5.2 3.0 0.8 3.3 7.1 1.3 3.0 2.2 0.9 2.9 1.4 1.9 9.5 8.0 5.9 4.8 3.7 1.7 2.4 3.4 4.4 4.1 5.8 5.0 4.5 4.2 4.3 3.9 4.6 4.4 3.9 2.3 3.1 6.5 3.8 4.4
0.0 0.0 nan nan nan nan 0.8 0.5 0.8 0.9 0.9 3.2 12.1 11.3 6.5 8.5 10.0 7.0 4.6 2.1 2.0 1.2 1.0 0.7 0.4 1.0 7.9 2.9 5.9 6.6 5.9 5.1 3.6 5.1 5.9 4.9 4.3 4.7 4.4 5.7 5.7 4.6 4.2 5.0 4.6 5.0 4.5 5.1 3.3 5.5 3.4 3.8 3.1 3.3
0.0 0.0 nan nan 0.0 0.2 1.3 0.9 0.1 2.1 6.6 4.1 4.6 3.2 3.8 8.1 3.9 3.1 3.6 1.8 1.6 0.4 0.9 1.8 3.7 4.0 7.6 4.9 8.6 7.9 8.1 4.9 6.0 7.6 7.2 6.6 5.8 6.2 7.0 6.4 5.8 5.7 4.8 5.3 4.2 4.7 4.9 4.2 3.8 3.0 2.9 2.3 3.4 3.3
nan nan nan nan nan 0.2 0.2 1.0 0.1 0.2 3.1 5.3 2.0 2.6 3.0 5.0 2.7 6.5 3.5 0.9 0.5 1.3 2.6 3.2 7.5 11.5 8.2 8.2 5.7 6.9 6.8 4.1 3.3 4.4 6.9 7.4 7.8 5.3 7.0 4.8 5.7 5.1 4.2 3.7 4.2 1.6 3.0 2.7 2.3 2.2 1.9 1.2 3.0 3.8
nan nan nan 0.0 0.1 0.0 0.3 0.4 0.1 0.3 0.6 1.7 0.9 0.3 4.1 1.0 2.6 4.4 2.5 0.3 5.7 4.0 5.6 8.0 10.2 8.2 5.7 5.8 3.6 2.9 3.7 2.1 3.9 2.0 4.3 6.5 7.8 4.3 5.0 5.7 4.3 3.6 2.8 4.0 5.8 5.7 2.8 4.1 2.2 1.4 9.4 11.4 7.1 5.4
0.0 nan 0.3 0.2 0.9 0.8 1.2 0.1 0.2 0.3 0.7 0.8 1.1 0.4 4.0 12.1 11.2 5.7 0.5 3.8 3.9 6.5 5.0 6.1 6.8 4.7 3.6 4.3 5.5 2.7 4.7 2.0 2.1 1.7 1.5 1.6 5.6 4.8 5.8 6.4 3.8 6.1 4.7 5.8 3.3 5.1 3.1 1.6 2.6 3.1 6.7 10.5 4.5 5.5
nan 0.1 0.6 0.4 2.4 5.5 20.8 0.3 0.9 0.2 2.7 1.6 0.8 1.5 4.3 3.9 2.1 0.2 5.2 1.2 6.2 5.0 3.6 2.7 3.0 2.9 4.7 5.5 1.7 2.3 3.4 1.6 2.7 3.3 3.8 3.8 3.3 4.3 4.1 3.7 3.7 5.8 4.6 2.6 1.5 2.7 3.8 3.0 3.7 9.8 6.9 7.3 7.7 16.4
nan 2.7 5.9 4.5 3.8 16.1 1.7 6.2 0.4 0.9 0.9 2.2 2.4 3.9 0.6 1.6 0.7 3.9 4.9 5.4 6.4 3.0 2.6 3.6 1.9 2.5 1.6 0.5 2.2 2.9 3.8 1.7 1.8 2.2 2.8 1.8 2.3 2.6 1.5 1.6 2.5 2.3 1.6 1.2 1.8 3.4 3.6 10.4 7.0 5.4 12.8 22.7 27.3 23.9
14.0 22.4 8.9 36.5 4.1 10.3 8.1 6.7 3.2 1.7 6.2 4.9 4.0 4.9 10.7 1.0 7.2 6.1 2.3 5.1 4.8 6.0 4.8 2.9 1.3 1.3 1.7 3.6 3.2 3.0 0.6 0.8 1.4 1.7 1.9 1.2 1.9 2.2 1.5 1.0 1.2 1.3 1.6 8.2 10.7 13.2 14.1 14.1 15.3 14.7 9.7 26.3 9.6 12.4
37.2 17.5 16.1 5.1 11.7 5.6 3.3 8.8 9.6 10.6 5.9 7.5 7.0 3.1 3.8 6.9 7.2 8.8 2.4 6.5 8.8 6.0 18.2 13.2 6.6 2.1 1.5 1.1 1.5 1.4 1.5 1.0 0.7 1.2 1.5 0.9 1.1 4.6 6.2 5.4 4.9 3.8 2.6 6.3 11.4 18.1 13.5 15.8 18.2 10.1 18.1 10.5 9.0 24.4
33.5 19.9 1.7 0.3 1.0 0.7 10.3 8.1 1.6 5.6 8.1 11.8 6.1 8.5 8.5 15.9 13.5 4.2 3.0 2.4 2.4 4.2 2.1 1.8 1.2 1.0 1.1 1.0 0.8 1.2 1.2 1.4 1.6 1.2 1.3 1.1 1.2 1.1 4.0 10.7 6.6 4.8 3.1 5.9 9.8 21.2 21.7 21.2 22.6 15.9 19.3 19.7 22.9 25.3
5.0 2.9 13.6 7.0 10.7 2.4 9.5 6.9 7.3 8.8 5.2 1.8 5.6 11.7 13.6 11.5 6.9 4.9 2.9 3.2 3.8 1.5 1.3 1.4 1.2 0.9 1.1 1.6 2.3 4.0 5.1 4.9 6.0 4.5 3.5 3.1 2.6 6.0 6.1 6.5 5.7 7.4 7.7 14.9 16.5 19.4 15.6 23.4 26.5 26.4 24.1 25.1 28.4 25.3
7.4 2.9 3.6 14.0 6.9 6.3 9.5 10.1 8.0 3.0 1.4 3.3 14.8 7.9 6.5 3.2 9.9 6.0 5.7 4.4 3.8 3.6 5.3 6.8 9.1 10.2 6.1 5.0 8.0 6.1 8.1 10.1 9.3 10.8 14.2 14.5 13.8 11.8 8.2 9.7 10.7 14.0 12.9 13.5 7.8 10.1 13.1 19.1 22.4 26.1 23.1 29.3 29.2 31.7
6.8 2.6 7.1 9.1 11.1 8.0 15.2 9.9 12.1 9.9 1.1 3.9 2.0 2.3 3.2 8.3 11.5 6.5 7.4 7.2 10.1 20.6 28.7 23.3 21.8 21.2 30.7 22.2 19.0 13.7 14.8 18.2 15.2 21.6 24.2 18.6 15.3 14.7 16.9 20.8 20.3 19.1 18.5 32.3 21.7 11.2 8.9 22.1 17.8 32.0 27.7 26.0 28.5 32.2
2.3 6.8 10.2 5.8 11.8 18.2 17.7 18.3 17.0 10.3 10.3 16.7 17.3 18.5 14.4 11.4 13.2 8.9 8.2 11.8 11.2 32.9 35.2 38.3 36.5 35.7 32.0 21.7 32.3 29.5 21.9 28.5 13.5 10.4 10.2 15.2 17.8 22.7 23.7 21.2 22.3 24.6 25.5 24.4 30.2 25.6 24.5 28.2 28.1 27.8 22.1 19.6 21.6 23.0
11.3 19.6 20.7 11.8 14.7 24.9 14.3 30.4 23.4 21.2 23.6 24.7 28.5 24.5 30.1 26.5 17.0 13.8 16.0 24.3 28.4 32.4 9.1 28.1 39.4 20.5 18.0 16.3 25.0 20.1 9.9 13.7 14.3 14.4 14.3 18.6 21.7 24.1 15.8 13.5 27.9 28.3 23.9 26.2 22.9 24.1 20.0 26.8 26.3 28.7 25.7 22.2 20.8 19.3
25.9 19.3 14.4 14.5 26.7 15.2 18.5 22.4 5.6 20.5 19.1 23.3 26.8 24.3 25.7 22.5 15.6 21.2 11.0 23.0 28.1 30.1 25.4 32.3 33.9 37.8 20.4 17.5 16.4 17.7 12.9 17.5 17.5 10.4 9.2 9.2 9.1 10.4 18.6 26.1 30.0 24.5 16.2 21.8 24.7 23.2 19.6 15.0 18.6 19.1 20.9 23.8 22.1 20.4
Water_Equivalent
nan nan nan nan nan nan nan nan nan nan nan nan nan nan nan nan nan 0.00 0.00 0.00 0.02 0.27 0.00 0.00 0.00 0.00 0.00 0.00 0.05 0.00 0.24 0.11 0.13 0.12 0.12 0.10 0.18 0.01 0.00 0.06 0.14 0.15 0.26 0.44 0.17 0.15 0.33 0.00 0.00 0.09 0.58 0.01 0.00 0.00
nan nan nan nan nan nan nan nan nan nan nan nan nan nan nan nan nan nan 0.00 0.00 0.00 0.02 0.01 0.00 0.00 0.00 0.00 0.00 0.00 0.00 0.02 0.02 0.00 0.18 0.19 0.08 0.22 0.29 0.02 0.26 0.02 0.59 0.06 0.28 0.06 0.35 0.03 0.00 0.06 0.02 0.01 0.01 0.01 0.00
nan nan nan nan nan nan nan nan nan nan nan nan nan nan nan nan nan nan 0.00 0.00 0.01 0.21 0.00 0.00 0.00 0.00 0.00 0.00 0.00 0.01 0.00 0.00 0.00 0.00 0.03 0.03 0.06 0.21 0.28 0.08 0.05 0.00 0.00 0.23 0.07 0.05 0.01 0.00 0.00 0.00 0.00 0.00 0.00 0.01
nan nan nan nan nan nan nan nan nan nan nan nan nan nan nan nan nan nan 0.00 0.00 0.00 0.00 0.41 0.00 0.00 0.00 0.00 0.00 0.00 0.00 0.00 0.00 0.00 0.00 0.03 0.12 0.16 0.00 0.07 0.02 0.04 0.03 0.04 0.31 0.13 0.13 0.06 0.03 0.04 0.04 0.02 0.00 0.00 0.00
nan nan nan nan nan nan nan nan nan nan nan nan nan nan nan nan nan nan 0.00 0.00 0.00 0.05 0.18 0.00 0.00 0.00 0.00 0.00 0.00 0.00 0.00 0.00 0.00 0.17 0.44 0.27 0.00 0.10 0.01 0.01 0.21 0.05 0.31 0.65 1.33 0.42 0.16 0.13 0.08 0.05 0.08 0.02 0.00 0.00
nan nan nan nan nan nan nan nan nan nan nan nan nan nan nan nan nan 0.00 0.78 0.00 0.00 0.00 0.16 0.15 0.00 0.00 0.00 0.00 0.00 0.00 0.00 0.00 0.00 0.01 0.30 0.23 0.00 0.04 0.73 0.20 0.03 0.04 0.05 0.07 0.53 0.27 0.10 0.17 0.11 0.07 0.10 0.10 0.01 0.01
nan nan nan nan nan nan nan nan nan nan nan nan nan nan nan nan 0.00 0.06 0.02 0.00 nan 0.00 0.14 0.22 0.06 0.00 0.00 0.00 0.00 0.00 0.00 0.00 0.00 0.00 0.04 0.00 0.00 0.00 0.25 0.30 0.06 0.05 0.06 0.07 0.10 0.10 0.16 0.15 0.30 0.09 0.08 0.08 0.04 0.03
nan nan nan nan nan nan nan nan nan nan nan nan nan nan nan nan nan 0.00 0.00 nan nan 0.00 0.00 0.56 0.24 0.05 0.00 0.09 0.09 0.00 0.01 0.02 0.00 0.00 0.04 0.04 0.00 0.08 0.53 0.02 0.01 0.02 0.02 0.06 0.05 0.04 0.09 0.11 0.09 0.08 0.05 0.05 0.05 0.06
nan nan nan nan nan nan nan nan nan nan nan nan nan nan 0.00 0.00 0.07 0.00 nan nan 0.00 0.08 0.31 0.79 0.54 1.07 0.00 0.05 0.08 0.07 0.00 0.62 0.01 0.14 0.05 0.02 0.24 0.84 0.40 0.05 0.02 0.02 0.03 0.02 0.02 0.00 0.01 0.06 0.08 0.09 0.09 0.07 0.03 0.04
nan nan nan nan nan nan nan nan nan nan nan nan 0.00 0.19 2.58 0.12 nan nan 0.03 0.86 0.25 0.03 0.01 0.27 0.00 0.30 0.04 0.35 0.24 0.21 0.12 0.35 0.58 0.37 0.02 0.28 0.69 0.10 0.06 0.03 0.02 0.01 0.00 0.01 0.03 0.03 0.00 0.02 0.02 0.01 0.00 0.00 0.00 0.00
nan nan nan nan nan nan nan nan nan nan nan 0.06 1.05 0.92 0.00 nan 0.00 0.24 1.28 0.80 0.31 0.32 0.09 0.07 0.03 0.20 0.01 0.65 0.89 0.15 0.98 0.31 0.63 0.20 0.38 0.52 0.36 0.27 0.05 0.03 0.02 0.01 0.01 0.01 0.01 0.01 0.00 0.00 0.01 0.00 0.00 0.00 0.00 0.00
nan nan nan nan nan nan nan nan nan 0.00 0.01 0.01 0.00 0.00 0.02 0.05 0.76 0.81 0.97 0.43 0.12 0.10 0.20 0.23 0.15 0.08 0.14 0.14 0.37 0.66 0.69 0.56 0.44 0.15 1.15 0.65 0.41 0.04 0.01 0.00 0.00 0.02 0.03 0.02 0.02 0.05 0.04 0.02 0.02 0.00 0.00 0.01 0.02 0.03
nan nan nan nan nan nan nan nan nan nan nan 0.00 0.15 1.08 1.17 1.74 5.11 1.25 1.02 0.58 1.46 0.26 0.44 0.30 1.59 0.14 0.11 0.04 0.80 1.05 1.66 1.54 0.18 2.10 0.64 0.57 0.10 0.02 0.01 0.00 0.00 0.00 0.00 0.02 0.04 0.02 0.07 0.17 0.25 0.22 0.34 0.43 0.64 0.73
nan nan nan nan nan nan nan nan nan 0.00 0.07 0.82 0.80 5.50 2.76 1.88 0.71 0.68 0.36 0.43 0.46 0.44 0.29 0.25 0.40 0.33 0.34 0.58 1.06 2.09 0.73 0.44 1.82 1.98 0.83 0.47 0.22 0.11 0.04 0.03 0.02 0.15 0.23 0.25 0.48 0.55 0.57 0.58 0.93 1.21 1.55 1.69 1.30 0.96
nan nan nan nan nan nan nan nan nan 0.03 0.24 0.93 0.53 3.60 1.60 1.16 0.81 0.95 0.86 0.62 0.47 0.32 0.29 0.42 0.26 0.10 0.85 1.66 0.78 0.56 1.60 1.59 0.78 0.98 0.81 0.61 0.24 0.11 0.18 0.15 0.17 0.26 0.57 0.59 0.56 0.61 0.95 0.79 0.54 0.71 0.87 0.84 0.59 1.08
nan nan 0.00 nan nan nan nan nan 0.03 0.06 0.21 0.40 0.25 1.05 0.81 1.91 3.17 3.00 2.17 1.97 0.33 0.51 0.33 0.35 0.50 1.07 1.31 0.97 0.53 0.87 0.34 0.71 1.29 0.80 0.58 0.29 0.30 0.31 0.31 0.32 0.46 0.51 0.55 0.59 0.54 0.48 0.52 0.63 0.60 0.58 0.51 0.55 1.29 1.10
nan 0.00 nan nan nan nan nan 0.12 0.18 0.12 0.42 0.12 2.38 1.11 1.69 1.63 2.35 2.15 1.39 0.72 0.22 0.93 2.22 0.37 0.74 0.45 0.24 0.69 0.27 0.36 1.77 1.17 0.87 0.62 0.49 0.24 0.31 0.43 0.56 0.54 0.84 0.66 0.56 0.50 0.48 0.43 0.49 0.47 0.42 0.23 0.31 0.59 0.35 0.40
0.00 0.00 nan nan nan nan 0.15 0.09 0.19 0.21 0.19 0.67 2.10 1.95 1.25 1.64 2.03 1.67 1.07 0.49 0.49 0.30 0.26 0.15 0.11 0.23 1.69 0.56 1.03 0.95 0.80 0.74 0.54 0.73 0.77 0.62 0.54 0.62 0.59 0.71 0.71 0.55 0.46 0.55 0.52 0.56 0.50 0.57 0.33 0.56 0.31 0.34 0.28 0.29
0.00 0.00 nan nan 0.00 0.04 0.26 0.18 0.04 0.41 1.12 0.79 0.82 0.65 0.76 1.47 0.77 0.61 0.89 0.48 0.39 0.11 0.24 0.41 0.78 0.70 1.21 0.77 1.25 1.17 1.25 0.75 0.76 0.93 0.89 0.80 0.72 0.74 0.83 0.77 0.66 0.61 0.50 0.54 0.44 0.55 0.53 0.40 0.40 0.37 0.35 0.30 0.40 0.41
nan nan nan nan nan 0.07 0.04 0.27 0.03 0.06 0.61 0.85 0.48 0.51 0.55 0.83 0.63 1.74 1.06 0.27 0.14 0.30 0.53 0.61 1.04 1.34 1.07 1.06 0.88 0.91 0.95 0.67 0.46 0.54 0.78 0.85 0.94 0.60 0.78 0.57 0.63 0.54 0.45 0.36 0.48 0.35 0.38 0.34 0.28 0.30 0.26 0.21 0.53 0.65
nan nan nan 0.00 0.04 0.01 0.08 0.12 0.05 0.09 0.15 0.35 0.22 0.10 0.77 0.29 0.65 1.08 0.64 0.10 1.41 0.73 0.77 1.01 1.31 0.94 0.81 0.88 0.59 0.49 0.55 0.34 0.54 0.33 0.51 0.66 0.83 0.53 0.55 0.69 0.53 0.47 0.38 0.48 0.88 0.66 0.48 0.53 0.30 0.24 2.14 2.56 1.58 1.19
0.01 nan 0.10 0.05 0.23 0.18 0.34 0.05 0.08 0.10 0.20 0.22 0.26 0.12 0.98 2.67 2.43 1.29 0.16 0.86 0.59 0.75 0.62 0.70 0.73 0.57 0.46 0.49 0.70 0.39 0.63 0.26 0.27 0.27 0.35 0.28 0.57 0.51 0.59 0.67 0.45 0.74 0.63 0.87 0.50 0.97 0.54 0.27 0.51 0.65 1.52 2.49 0.94 1.07
nan 0.05 0.20 0.12 0.60 1.26 2.35 0.08 0.25 0.07 0.70 0.45 0.24 0.39 1.02 0.92 0.51 0.07 1.10 0.19 0.67 0.67 0.50 0.37 0.38 0.37 0.50 0.55 0.19 0.28 0.40 0.21 0.37 0.44 0.51 0.47 0.42 0.60 0.54 0.46 0.55 1.02 0.76 0.35 0.25 0.51 0.68 0.85 0.83 2.23 1.55 1.56 1.57 3.35
nan 0.68 1.47 1.13 0.92 3.03 0.53 1.54 0.12 0.24 0.28 0.59 0.62 0.81 0.13 0.40 0.19 0.83 0.88 0.78 0.67 0.38 0.33 0.39 0.33 0.33 0.22 0.06 0.26 0.35 0.49 0.25 0.24 0.30 0.41 0.28 0.32 0.32 0.23 0.24 0.42 0.42 0.29 0.22 0.38 0.77 0.77 2.27 2.08 1.04 2.55 4.62 5.52 4.52
1.96 3.36 2.23 4.11 1.09 2.42 1.91 1.68 0.75 0.43 1.15 1.15 0.79 1.01 1.99 0.28 1.24 1.10 0.38 0.66 0.62 0.81 0.63 0.44 0.22 0.21 0.23 0.46 0.39 0.34 0.08 0.13 0.22 0.24 0.29 0.23 0.37 0.42 0.27 0.18 0.21 0.23 0.36 1.74 2.21 2.97 2.99 2.95 3.12 2.93 1.77 5.15 1.66 2.14
4.42 3.91 3.33 1.35 2.52 1.35 0.75 1.53 1.62 1.95 1.11 1.32 1.38 0.69 1.02 1.44 1.18 1.19 0.36 0.91 1.34 0.80 3.11 2.24 1.12 0.35 0.21 0.16 0.20 0.19 0.20 0.18 0.16 0.22 0.23 0.17 0.22 0.86 1.10 0.94 0.80 0.67 0.52 1.34 2.34 3.81 2.77 3.11 3.51 1.79 3.26 1.94 2.45 4.32
3.88 3.65 0.41 0.10 0.21 0.15 2.00 1.82 0.45 1.21 1.34 1.66 1.14 1.55 1.73 2.22 1.90 0.56 0.40 0.36 0.31 0.62 0.35 0.31 0.23 0.19 0.18 0.15 0.14 0.23 0.23 0.27 0.29 0.22 0.25 0.21 0.22 0.22 0.78 1.84 1.05 0.71 0.61 1.30 2.17 4.46 4.34 4.06 4.32 2.83 3.45 3.75 4.11 4.46
1.01 0.62 1.66 1.60 2.09 0.54 1.60 1.17 1.30 1.42 0.98 0.38 0.96 1.58 1.99 1.73 0.86 0.66 0.39 0.46 0.66 0.28 0.26 0.29 0.25 0.17 0.21 0.27 0.37 0.59 0.80 0.75 1.01 0.79 0.61 0.55 0.46 1.00 0.98 1.11 1.00 2.44 1.44 2.89 3.59 3.89 3.03 4.59 4.93 4.84 4.17 4.20 4.56 4.21
1.22 0.69 0.80 1.59 1.01 1.08 1.36 1.56 1.25 0.52 0.24 0.70 2.66 1.21 0.98 0.41 1.21 0.77 0.69 0.62 0.69 0.65 0.80 1.02 1.37 1.85 0.99 0.79 1.22 0.93 1.23 1.50 1.37 1.42 2.00 1.98 2.01 1.72 1.20 1.48 1.63 2.17 2.08 2.25 2.57 2.62 2.56 3.26 3.83 4.30 4.42 4.86 4.62 4.98
1.08 0.70 1.36 1.35 1.22 1.03 2.36 1.62 2.10 1.75 0.19 0.69 0.39 0.36 0.40 0.95 1.24 0.84 1.07 1.01 1.40 3.22 4.86 3.79 3.50 3.36 4.78 3.35 2.75 2.01 2.30 3.01 2.43 3.35 3.63 2.63 2.17 2.11 2.49 3.19 3.16 3.06 3.02 5.60 3.19 1.47 2.47 3.32 3.74 4.80 4.08 3.68 4.03 4.29
0.60 1.72 2.08 1.20 1.71 3.23 3.04 3.55 3.52 1.85 2.00 3.13 3.24 3.45 2.20 1.47 1.68 1.15 1.04 1.54 1.54 5.67 6.12 6.36 6.10 6.35 4.95 3.03 5.07 4.50 2.96 4.73 1.90 1.41 1.40 2.16 2.59 3.54 3.79 3.30 3.50 3.96 4.13 3.79 4.69 3.32 3.04 3.76 4.08 4.09 2.90 2.55 2.56 2.67
2.31 3.64 2.80 1.52 2.36 4.60 2.55 5.67 4.43 3.93 4.86 4.48 5.05 4.33 4.87 3.91 2.18 1.65 1.89 3.15 4.06 4.81 2.67 3.90 5.93 2.62 2.49 2.26 3.93 3.05 3.08 1.82 1.86 1.85 1.97 2.60 3.25 3.74 2.36 1.97 4.56 4.63 3.73 4.02 3.34 3.40 2.76 3.49 3.30 3.68 3.11 2.71 2.44 2.17
5.44 3.89 2.56 2.26 4.72 2.77 3.16 4.10 1.11 3.62 3.20 3.72 4.29 3.84 3.97 3.15 1.88 2.42 1.14 2.83 3.65 3.99 3.20 4.44 4.74 5.65 2.85 2.42 2.18 2.42 2.88 2.10 2.65 3.44 3.02 3.02 3.00 2.88 2.66 4.01 4.83 3.71 2.27 3.13 3.50 3.11 2.67 1.98 2.09 2.36 2.41 2.75 2.49 2.26
SL_Ratio
nan nan nan nan nan nan nan nan nan nan nan nan nan nan nan nan nan nan nan nan 2.9 3.3 nan nan nan 0.0 nan nan 4.5 0.0 4.4 3.8 3.1 3.6 3.5 3.8 2.8 2.6 3.6 6.1 6.0 6.7 5.3 4.6 4.6 4.3 6.9 4.4 nan 6.1 4.8 6.3 6.0 nan
nan nan nan nan nan nan nan nan nan nan nan nan nan nan nan nan nan nan nan nan nan 2.3 4.6 nan nan nan nan nan nan 0.0 4.6 3.8 4.2 4.6 4.6 3.5 3.1 2.7 4.8 6.0 4.1 6.5 4.5 4.9 5.7 6.4 5.1 5.7 5.5 5.6 6.0 6.3 6.3 7.5
nan nan nan nan nan nan nan nan nan nan nan nan nan nan nan nan nan nan nan nan 2.5 3.1 4.0 3.3 nan nan nan nan nan 3.6 0.0 nan nan nan 4.9 3.3 5.0 5.0 3.9 4.2 3.8 2.5 2.7 4.2 5.6 4.5 5.1 5.3 5.0 6.7 5.8 6.0 nan 6.0
nan nan nan nan nan nan nan nan nan nan nan nan nan nan nan nan nan nan nan nan nan nan 3.6 nan nan nan nan nan nan nan nan nan nan nan 2.6 3.1 2.6 nan 3.0 3.0 3.8 4.0 4.4 4.4 5.0 4.6 4.9 4.7 4.6 4.5 5.0 5.0 nan nan
nan nan nan nan nan nan nan nan nan nan nan nan nan nan nan nan nan nan nan nan nan 4.2 4.0 2.5 nan nan nan nan nan nan nan nan nan 2.7 3.2 4.2 4.0 4.1 2.6 2.6 5.5 4.1 5.0 4.8 5.1 4.7 4.8 5.1 4.6 4.7 5.6 5.5 7.5 6.2
nan nan nan nan nan nan nan nan nan nan nan nan nan nan nan nan nan nan 2.5 nan nan nan 3.7 2.8 nan nan nan nan nan nan nan nan nan 3.1 3.4 3.5 nan 4.1 3.8 4.9 4.3 4.3 4.4 4.3 5.1 3.7 4.7 4.7 4.7 4.7 5.6 5.6 5.9 6.9
nan nan nan nan nan nan nan nan nan nan nan nan nan nan nan nan nan 2.7 4.3 nan nan nan 2.9 3.4 2.8 nan nan nan nan nan nan nan nan nan 2.5 nan nan nan 3.5 4.5 4.7 4.0 4.4 4.4 4.4 4.7 5.6 5.5 6.1 5.2 5.3 6.0 5.9 7.3
nan nan nan nan nan nan nan nan nan nan nan nan nan nan nan nan nan nan nan nan nan nan 2.0 3.6 2.9 2.5 nan 2.5 2.5 nan 2.6 2.5 2.5 nan 2.5 2.7 2.7 3.0 5.2 5.8 5.0 4.2 4.1 4.5 4.5 5.0 5.8 5.6 5.7 6.2 6.3 6.2 7.5 8.3
nan nan nan nan nan nan nan nan nan nan nan nan nan nan nan nan 2.6 nan nan nan nan 4.1 4.4 2.6 3.7 3.6 nan 2.5 2.5 2.7 2.7 3.8 2.6 2.5 2.5 2.6 4.0 5.1 6.0 5.6 5.2 5.1 5.5 5.2 5.5 nan 5.5 6.3 6.6 6.9 7.3 7.6 8.3 9.3
nan nan nan nan nan nan nan nan nan nan nan nan nan 2.7 4.1 3.4 nan nan 3.6 2.9 3.7 3.5 2.8 3.2 2.5 3.3 3.5 3.5 2.6 2.7 2.5 3.1 3.9 3.9 4.2 3.8 4.9 6.0 6.0 5.4 5.1 4.0 0.0 7.2 7.4 7.4 8.6 7.1 6.8 7.6 7.9 6.7 8.6 10.0
nan nan nan nan nan nan nan nan nan nan nan 2.5 3.4 3.6 nan nan 3.3 4.0 4.9 5.0 4.7 4.4 3.0 2.9 2.6 3.3 2.4 3.7 3.5 2.8 3.4 2.9 3.5 3.9 3.7 5.0 5.6 6.2 5.8 4.8 3.5 3.3 3.2 3.3 4.5 8.8 10.0 8.0 7.4 8.3 10.0 nan 10.0 10.0
nan nan nan nan nan nan nan nan nan nan 3.1 3.2 10.0 nan 2.5 3.8 4.3 4.9 3.8 3.2 3.6 3.9 3.6 3.0 2.9 2.9 2.7 2.9 4.1 3.8 4.1 3.1 3.7 3.8 3.8 4.4 7.2 6.8 6.6 7.0 3.6 2.7 3.7 4.7 4.5 4.6 4.3 5.5 5.7 5.0 7.0 7.8 8.0 8.0
nan nan nan nan nan nan nan nan nan nan nan nan 3.7 4.6 5.7 4.2 6.7 3.2 4.0 3.5 3.0 3.2 2.6 2.5 2.5 2.7 2.7 2.7 3.6 3.9 3.4 4.1 3.2 3.9 5.8 7.1 7.3 6.3 6.0 10.0 6.7 nan 5.0 4.6 5.6 5.4 5.9 6.7 6.9 7.8 8.0 8.0 7.1 8.1
nan nan nan nan nan nan nan nan nan nan 3.1 4.9 4.8 6.9 4.4 3.3 3.9 4.3 3.9 3.4 3.0 2.9 2.9 2.9 2.7 3.1 2.5 3.1 3.8 4.0 3.9 3.6 4.4 4.5 6.3 7.8 7.4 6.1 5.2 5.0 4.8 6.2 5.7 6.3 6.8 6.5 6.9 7.2 7.8 6.8 6.8 7.0 7.8 9.3
nan nan nan nan nan nan nan nan nan 3.5 4.7 5.2 4.2 7.7 4.6 4.8 4.0 3.6 3.0 2.8 3.5 3.5 3.4 3.2 2.7 3.3 3.1 3.3 3.6 3.9 3.9 4.2 4.8 5.8 7.2 6.7 6.6 6.0 6.6 6.3 6.5 6.8 6.5 6.9 7.4 7.8 7.4 7.8 8.4 9.0 8.6 8.9 9.2 8.1
nan nan nan nan nan nan nan nan 3.5 4.3 3.7 4.8 4.5 4.6 3.8 4.2 4.2 3.3 3.1 3.1 3.6 4.2 4.0 4.0 3.6 3.7 3.9 3.8 4.0 4.3 4.5 5.6 6.6 6.4 6.8 5.9 7.7 7.5 7.5 7.4 7.3 7.2 7.5 8.0 8.3 8.5 8.5 8.3 8.3 10.1 9.6 9.3 7.6 7.3
nan nan nan nan nan nan nan 4.6 4.3 5.7 3.9 4.8 5.0 4.3 4.6 4.4 4.8 4.4 3.8 4.2 3.8 3.6 3.2 3.4 4.1 5.0 3.7 4.2 5.4 5.1 5.4 6.9 6.8 7.7 7.5 7.0 7.6 7.9 7.8 7.6 7.0 7.6 8.0 8.4 8.8 9.0 9.4 9.3 9.3 9.9 10.0 11.0 10.9 11.0
nan nan nan nan nan nan 5.1 5.1 4.0 4.0 5.0 4.8 5.8 5.8 5.2 5.1 4.9 4.2 4.3 4.3 4.0 3.8 3.7 5.0 3.4 4.5 4.6 5.2 5.7 7.0 7.4 6.9 6.7 7.0 7.6 7.9 7.9 7.5 7.5 8.0 8.0 8.3 9.1 8.9 8.9 8.8 9.0 8.9 10.2 9.8 11.0 11.0 11.0 11.3
nan nan nan nan nan 4.2 5.0 5.1 3.3 5.0 5.9 5.2 5.5 4.9 5.0 5.5 5.1 5.0 4.0 3.8 4.0 3.5 3.8 4.4 4.7 5.7 6.3 6.3 6.9 6.7 6.5 6.6 7.9 8.1 8.1 8.3 8.1 8.4 8.4 8.4 8.8 9.4 9.6 9.8 9.6 8.5 9.2 10.5 9.5 8.3 8.2 7.6 8.6 7.9
nan nan nan nan nan 3.3 6.0 3.8 2.6 3.3 5.0 6.2 4.2 5.1 5.4 6.0 4.3 3.7 3.3 3.4 3.5 4.3 4.9 5.3 7.2 8.6 7.6 7.8 6.5 7.5 7.2 6.1 7.0 8.1 8.8 8.7 8.3 8.9 9.0 8.5 9.1 9.3 9.4 10.2 8.8 4.7 7.8 7.9 8.0 7.6 7.1 5.7 5.6 5.9
nan nan nan nan 2.9 4.2 3.1 3.3 3.0 3.0 3.8 4.9 4.0 3.3 5.3 3.3 4.1 4.1 3.9 3.1 4.0 5.5 7.3 7.9 7.8 8.7 7.1 6.6 6.0 6.0 6.8 6.2 7.2 6.0 8.3 9.8 9.3 8.2 9.1 8.2 8.1 7.5 7.5 8.2 6.6 8.6 5.8 7.8 7.3 5.9 4.4 4.5 4.5 4.6
3.2 nan 3.2 3.6 4.1 4.6 3.7 2.9 3.1 3.2 3.4 3.4 4.2 3.2 4.0 4.5 4.6 4.4 3.3 4.4 6.6 8.7 8.0 8.7 9.3 8.2 7.7 8.7 7.8 7.1 7.4 7.8 7.9 6.2 4.4 5.8 9.9 9.3 9.8 9.7 8.4 8.2 7.6 6.7 6.5 5.3 5.7 5.9 5.1 4.7 4.4 4.2 4.8 5.1
nan 2.8 3.1 3.6 4.0 4.4 8.8 3.7 3.4 3.5 3.9 3.7 3.5 3.8 4.2 4.3 4.2 3.0 4.8 6.5 9.2 7.4 7.1 7.4 7.8 7.8 9.5 9.9 8.7 8.3 8.3 7.7 7.4 7.5 7.4 8.2 7.9 7.2 7.6 8.0 6.8 5.7 6.1 7.3 5.9 5.3 5.5 3.6 4.4 4.4 4.4 4.7 4.9 4.9
nan 3.9 4.0 4.0 4.1 5.3 3.1 4.0 3.7 3.8 3.4 3.7 3.9 4.8 4.9 4.0 3.6 4.6 5.6 6.9 9.6 8.0 7.7 9.1 5.7 7.6 7.4 8.2 8.2 8.5 7.8 6.6 7.4 7.2 6.8 6.4 7.2 8.2 6.3 6.4 6.0 5.4 5.6 5.6 4.7 4.5 4.6 4.6 3.4 5.2 5.0 4.9 4.9 5.3
7.1 6.7 4.0 8.9 3.8 4.3 4.3 4.0 4.2 4.0 5.4 4.3 5.1 4.8 5.4 3.6 5.8 5.6 6.1 7.7 7.8 7.4 7.7 6.6 5.9 6.2 7.5 7.7 8.2 8.8 7.9 6.1 6.4 7.1 6.4 5.2 5.1 5.3 5.7 5.7 5.8 5.6 4.3 4.7 4.8 4.4 4.7 4.8 4.9 5.0 5.5 5.1 5.7 5.8
8.4 4.5 4.8 3.8 4.6 4.1 4.4 5.8 6.0 5.4 5.3 5.7 5.0 4.6 3.8 4.8 6.1 7.4 6.8 7.1 6.6 7.5 5.8 5.9 5.9 6.1 7.2 6.8 7.7 7.4 7.2 5.3 4.3 5.4 6.5 5.4 5.3 5.3 5.6 5.8 6.0 5.7 5.0 4.7 4.9 4.7 4.9 5.1 5.2 5.7 5.6 5.4 3.7 5.6
8.6 5.4 4.0 3.4 4.5 4.6 5.2 4.4 3.7 4.6 6.0 7.1 5.4 5.5 4.9 7.2 7.1 7.6 7.5 6.8 7.6 6.8 6.2 5.6 5.0 5.4 6.2 6.8 6.0 5.5 5.1 5.0 5.6 5.6 5.2 5.2 5.3 5.2 5.2 5.8 6.3 6.7 5.1 4.5 4.5 4.8 5.0 5.2 5.2 5.6 5.6 5.3 5.6 5.7
4.9 4.7 8.2 4.4 5.1 4.4 6.0 5.8 5.6 6.2 5.3 4.8 5.8 7.4 6.9 6.6 8.0 7.4 7.3 6.9 5.7 5.5 5.2 5.0 4.8 5.0 5.4 5.9 6.3 6.8 6.5 6.5 5.9 5.8 5.7 5.6 5.6 6.0 6.2 5.9 5.7 3.0 5.3 5.2 4.6 5.0 5.1 5.1 5.4 5.5 5.8 6.0 6.2 6.0
6.1 4.2 4.5 8.8 6.8 5.8 7.0 6.4 6.4 5.7 5.6 4.8 5.6 6.5 6.7 7.8 8.2 7.8 8.3 7.1 5.5 5.5 6.6 6.7 6.6 5.5 6.2 6.3 6.5 6.5 6.6 6.7 6.8 7.6 7.1 7.4 6.8 6.9 6.8 6.6 6.6 6.4 6.2 6.0 3.0 3.9 5.1 5.9 5.9 6.1 5.2 6.0 6.3 6.4
6.3 3.7 5.3 6.7 9.1 7.8 6.4 6.1 5.8 5.7 5.5 5.6 5.0 6.4 8.1 8.8 9.3 7.7 6.9 7.1 7.2 6.4 5.9 6.1 6.2 6.3 6.4 6.6 6.9 6.8 6.4 6.0 6.3 6.4 6.7 7.1 7.1 7.0 6.8 6.5 6.4 6.3 6.1 5.8 6.8 7.6 3.6 6.6 4.8 6.7 6.8 7.1 7.1 7.5
3.9 3.9 4.9 4.8 6.9 5.6 5.8 5.2 4.8 5.5 5.1 5.3 5.3 5.4 6.5 7.8 7.9 7.7 7.9 7.6 7.3 5.8 5.7 6.0 6.0 5.6 6.5 7.2 6.4 6.5 7.4 6.0 7.1 7.4 7.3 7.0 6.9 6.4 6.2 6.4 6.4 6.2 6.2 6.4 6.4 7.7 8.0 7.5 6.9 6.8 7.6 7.7 8.5 8.6
4.9 5.4 7.4 7.8 6.2 5.4 5.6 5.4 5.3 5.4 4.8 5.5 5.6 5.6 6.2 6.8 7.8 8.4 8.5 7.7 7.0 6.7 3.4 7.2 6.6 7.8 7.2 7.2 6.4 6.6 3.2 7.6 7.7 7.8 7.3 7.2 6.7 6.4 6.7 6.9 6.1 6.1 6.4 6.5 6.9 7.1 7.3 7.7 8.0 7.8 8.2 8.2 8.5 8.9
4.8 5.0 5.6 6.4 5.7 5.5 5.8 5.5 5.1 5.6 6.0 6.2 6.3 6.3 6.5 7.1 8.3 8.7 9.7 8.1 7.7 7.5 7.9 7.3 7.1 6.7 7.2 7.2 7.5 7.3 4.5 8.3 6.6 3.0 3.0 3.0 3.0 3.6 7.0 6.5 6.2 6.6 7.2 7.0 7.1 7.5 7.3 7.6 8.9 8.1 8.7 8.7 8.9 9.0